RYR140E EBCI-LIEE

Flight info

Callsign RYR140E
Flight time 1h 51m
Altitude 37000
Route RITAX UT27 ROUSY DCT GTQ DCT DEVDI DCT ODINA DCT BOTAL DCT SPEZI DCT BEGUD DCT ROMPO DCT DEXUL Q125 KOVAS
Aircraft B38M/M-SDE1FGHILORVWXY/HB1

Departure

Time 2026-04-28 18:44
Airport Brussels South Charleroi Airport (EBCI)

Arrival

Time 2026-04-28 20:36
Airport Cagliari Elmas Airport (LIEE)
Time Latitude Longitude Altitude Speed Heading
2026-04-28 18:16 50.46700 4.46522 615 ft 0 kts 335°
2026-04-28 18:34 50.46688 4.46531 503 ft 2 kts 335°
2026-04-28 18:35 50.46673 4.46542 651 ft 2 kts 335°
2026-04-28 18:35 50.46658 4.46552 630 ft 2 kts 335°
2026-04-28 18:35 50.46646 4.46568 626 ft 2 kts 292°
2026-04-28 18:35 50.46645 4.46592 630 ft 2 kts 241°
2026-04-28 18:36 50.46646 4.46596 630 ft 2 kts 243°
2026-04-28 18:36 50.46645 4.46590 630 ft 0 kts 246°
2026-04-28 18:40 50.46632 4.46559 630 ft 10 kts 226°
2026-04-28 18:40 50.46546 4.46548 620 ft 10 kts 207°
2026-04-28 18:40 50.46489 4.46389 619 ft 24 kts 243°
2026-04-28 18:40 50.46405 4.46103 624 ft 30 kts 246°
2026-04-28 18:41 50.46313 4.45796 618 ft 32 kts 244°
2026-04-28 18:41 50.46233 4.45471 619 ft 32 kts 240°
2026-04-28 18:41 50.46130 4.45157 619 ft 33 kts 246°
2026-04-28 18:41 50.46049 4.44879 625 ft 18 kts 245°
2026-04-28 18:42 50.45994 4.44688 621 ft 21 kts 245°
2026-04-28 18:42 50.45917 4.44444 621 ft 28 kts 237°
2026-04-28 18:42 50.45796 4.44199 626 ft 29 kts 232°
2026-04-28 18:42 50.45677 4.43966 625 ft 25 kts 226°
2026-04-28 18:43 50.45558 4.43800 619 ft 13 kts 248°
2026-04-28 18:43 50.45550 4.43678 626 ft 10 kts 204°
2026-04-28 18:43 50.45531 4.43691 621 ft 2 kts 99°
2026-04-28 18:43 50.45574 4.43868 615 ft 49 kts 65°
2026-04-28 18:44 50.45822 4.44718 629 ft 120 kts 65°
2026-04-28 18:44 50.46563 4.47298 1210 ft 168 kts 68°
2026-04-28 18:44 50.47021 4.48982 2141 ft 169 kts 62°
2026-04-28 18:45 50.48139 4.50866 2902 ft 196 kts 38°
2026-04-28 18:45 50.49319 4.52176 3411 ft 220 kts 37°
2026-04-28 18:45 50.50406 4.54017 3971 ft 241 kts 56°
2026-04-28 18:45 50.51435 4.56232 4652 ft 259 kts 53°
2026-04-28 18:46 50.52170 4.57776 5270 ft 263 kts 53°
2026-04-28 18:46 50.53301 4.60085 6186 ft 269 kts 52°
2026-04-28 18:46 50.54463 4.62431 7091 ft 275 kts 51°
2026-04-28 18:46 50.55633 4.64799 7913 ft 281 kts 51°
2026-04-28 18:47 50.56846 4.67259 8763 ft 288 kts 51°
2026-04-28 18:47 50.58082 4.69769 9617 ft 293 kts 51°
2026-04-28 18:47 50.59340 4.72328 10413 ft 300 kts 51°
2026-04-28 18:47 50.60654 4.75001 10859 ft 318 kts 51°
2026-04-28 18:48 50.62051 4.77845 11200 ft 338 kts 51°
2026-04-28 18:48 50.63518 4.80860 11623 ft 354 kts 54°
2026-04-28 18:48 50.64579 4.84400 12237 ft 363 kts 76°
2026-04-28 18:48 50.64772 4.88359 12956 ft 368 kts 97°
2026-04-28 18:49 50.64070 4.92248 13617 ft 371 kts 118°
2026-04-28 18:49 50.63155 4.94519 14047 ft 373 kts 132°
2026-04-28 18:49 50.60749 4.98504 14831 ft 378 kts 137°
2026-04-28 18:49 50.58904 5.01470 15449 ft 381 kts 137°
2026-04-28 18:50 50.57030 5.04450 16053 ft 385 kts 138°
2026-04-28 18:50 50.55133 5.07443 16663 ft 388 kts 138°
2026-04-28 18:50 50.53217 5.10454 17247 ft 391 kts 138°
2026-04-28 18:50 50.51279 5.13492 17826 ft 395 kts 139°
2026-04-28 18:51 50.49324 5.16551 18404 ft 398 kts 139°
2026-04-28 18:51 50.47356 5.19628 18893 ft 401 kts 139°
2026-04-28 18:51 50.45369 5.22731 19380 ft 404 kts 139°
2026-04-28 18:51 50.43364 5.25857 19854 ft 408 kts 139°
2026-04-28 18:52 50.41345 5.29001 20316 ft 411 kts 139°
2026-04-28 18:52 50.39335 5.32127 20786 ft 414 kts 139°
2026-04-28 18:52 50.37254 5.35358 21241 ft 417 kts 139°
2026-04-28 18:52 50.35186 5.38566 21696 ft 421 kts 139°
2026-04-28 18:53 50.33097 5.41802 22150 ft 424 kts 140°
2026-04-28 18:53 50.31021 5.45014 22598 ft 427 kts 140°
2026-04-28 18:53 50.28899 5.48292 23054 ft 430 kts 140°
2026-04-28 18:53 50.26761 5.51590 23507 ft 434 kts 140°
2026-04-28 18:54 50.24605 5.54912 23924 ft 437 kts 140°
2026-04-28 18:54 50.22436 5.58250 24325 ft 439 kts 140°
2026-04-28 18:54 50.20250 5.61610 24743 ft 441 kts 140°
2026-04-28 18:54 50.18059 5.64973 25125 ft 444 kts 140°
2026-04-28 18:55 50.15851 5.68357 25518 ft 446 kts 140°
2026-04-28 18:55 50.13629 5.71743 25916 ft 448 kts 140°
2026-04-28 18:55 50.11386 5.75131 26370 ft 447 kts 141°
2026-04-28 18:55 50.09140 5.78466 26789 ft 447 kts 146°
2026-04-28 18:56 50.06511 5.80984 26891 ft 442 kts 164°
2026-04-28 18:56 50.04608 5.82064 27133 ft 441 kts 166°
2026-04-28 18:56 50.00721 5.84238 27544 ft 445 kts 167°
2026-04-28 18:56 49.97789 5.85816 27896 ft 447 kts 167°
2026-04-28 18:57 49.94828 5.87376 28240 ft 449 kts 167°
2026-04-28 18:57 49.91866 5.88915 28580 ft 451 kts 168°
2026-04-28 18:57 49.88877 5.90459 28897 ft 454 kts 168°
2026-04-28 18:57 49.85871 5.92006 29231 ft 456 kts 168°
2026-04-28 18:58 49.82856 5.93554 29544 ft 458 kts 168°
2026-04-28 18:58 49.79815 5.95114 29864 ft 461 kts 168°
2026-04-28 18:58 49.76772 5.96675 30162 ft 463 kts 168°
2026-04-28 18:58 49.73705 5.98243 30416 ft 465 kts 168°
2026-04-28 18:59 49.70624 5.99817 30683 ft 467 kts 168°
2026-04-28 18:59 49.67538 6.01392 30942 ft 468 kts 168°
2026-04-28 18:59 49.64438 6.02973 31255 ft 469 kts 168°
2026-04-28 18:59 49.61342 6.04548 31623 ft 468 kts 168°
2026-04-28 19:00 49.58298 6.06095 31978 ft 467 kts 168°
2026-04-28 19:00 49.55210 6.07662 32337 ft 466 kts 168°
2026-04-28 19:00 49.52135 6.09222 32684 ft 465 kts 168°
2026-04-28 19:00 49.49069 6.10841 33014 ft 468 kts 163°
2026-04-28 19:01 49.46198 6.13348 33147 ft 482 kts 149°
2026-04-28 19:01 49.43575 6.16574 33110 ft 482 kts 147°
2026-04-28 19:01 49.38341 6.23027 33098 ft 483 kts 147°
2026-04-28 19:02 49.33099 6.29503 33085 ft 484 kts 147°
2026-04-28 19:02 49.27848 6.35971 33088 ft 485 kts 147°
2026-04-28 19:03 49.22580 6.42443 33076 ft 486 kts 147°
2026-04-28 19:03 49.17300 6.48911 33075 ft 486 kts 147°
2026-04-28 19:04 49.12016 6.55365 33119 ft 486 kts 147°
2026-04-28 19:04 49.06744 6.61788 33084 ft 485 kts 147°
2026-04-28 19:05 49.01464 6.68203 33081 ft 486 kts 147°
2026-04-28 19:05 48.95805 6.73419 33090 ft 471 kts 163°
2026-04-28 19:06 48.90757 6.76407 33073 ft 460 kts 177°
2026-04-28 19:06 48.86549 6.76821 33319 ft 452 kts 185°
2026-04-28 19:06 48.83395 6.77417 33565 ft 465 kts 171°
2026-04-28 19:07 48.80311 6.79008 33903 ft 470 kts 166°
2026-04-28 19:07 48.77266 6.80846 34158 ft 472 kts 164°
2026-04-28 19:07 48.74239 6.82793 34443 ft 472 kts 163°
2026-04-28 19:07 48.71227 6.84781 34705 ft 472 kts 162°
2026-04-28 19:08 48.68224 6.86793 34961 ft 472 kts 162°
2026-04-28 19:08 48.65267 6.88789 35227 ft 472 kts 161°
2026-04-28 19:08 48.62231 6.90839 35476 ft 471 kts 161°
2026-04-28 19:08 48.59275 6.92834 35709 ft 472 kts 161°
2026-04-28 19:09 48.56279 6.94853 35946 ft 471 kts 161°
2026-04-28 19:09 48.53289 6.96865 36176 ft 471 kts 161°
2026-04-28 19:09 48.50289 6.98872 36405 ft 470 kts 162°
2026-04-28 19:09 48.47203 7.00330 36635 ft 463 kts 170°
2026-04-28 19:10 48.44169 7.02065 36794 ft 472 kts 155°
2026-04-28 19:10 48.41368 7.04668 37096 ft 470 kts 155°
2026-04-28 19:10 48.35576 7.09253 37038 ft 471 kts 158°
2026-04-28 19:11 48.29699 7.13626 37058 ft 471 kts 159°
2026-04-28 19:11 48.23811 7.17927 37052 ft 470 kts 159°
2026-04-28 19:12 48.17934 7.22202 37046 ft 469 kts 158°
2026-04-28 19:12 48.12068 7.26457 37037 ft 468 kts 159°
2026-04-28 19:13 48.06208 7.30699 37045 ft 468 kts 159°
2026-04-28 19:13 48.00347 7.34929 37047 ft 468 kts 159°
2026-04-28 19:14 47.94477 7.39156 37048 ft 468 kts 159°
2026-04-28 19:14 47.89060 7.43047 36990 ft 468 kts 159°
2026-04-28 19:15 47.83125 7.47299 37059 ft 472 kts 159°
2026-04-28 19:15 47.78211 7.50812 37047 ft 471 kts 159°
2026-04-28 19:16 47.71341 7.55710 37051 ft 471 kts 159°
2026-04-28 19:16 47.65425 7.59916 37046 ft 471 kts 159°
2026-04-28 19:17 47.59509 7.64113 37048 ft 472 kts 159°
2026-04-28 19:17 47.53585 7.68304 37046 ft 472 kts 159°
2026-04-28 19:18 47.47655 7.72490 37056 ft 472 kts 159°
2026-04-28 19:18 47.41721 7.76666 37058 ft 472 kts 159°
2026-04-28 19:19 47.35785 7.80836 37067 ft 472 kts 159°
2026-04-28 19:19 47.29841 7.84997 37083 ft 473 kts 159°
2026-04-28 19:20 47.23898 7.89150 37084 ft 473 kts 159°
2026-04-28 19:20 47.17952 7.93295 37087 ft 473 kts 159°
2026-04-28 19:21 47.12041 7.97404 37097 ft 473 kts 159°
2026-04-28 19:21 47.06051 8.01558 37095 ft 473 kts 159°
2026-04-28 19:22 47.01107 8.04978 37096 ft 473 kts 159°
2026-04-28 19:22 46.94149 8.09781 37086 ft 473 kts 159°
2026-04-28 19:23 46.88244 8.13846 37113 ft 472 kts 159°
2026-04-28 19:23 46.82293 8.17932 37109 ft 472 kts 159°
2026-04-28 19:24 46.76352 8.22002 37073 ft 471 kts 159°
2026-04-28 19:24 46.70410 8.26061 37098 ft 472 kts 159°
2026-04-28 19:25 46.64473 8.30108 37138 ft 469 kts 159°
2026-04-28 19:25 46.58587 8.34111 37107 ft 467 kts 159°
2026-04-28 19:26 46.52699 8.38105 37119 ft 467 kts 159°
2026-04-28 19:26 46.46811 8.42089 37098 ft 466 kts 159°
2026-04-28 19:27 46.40923 8.46065 37126 ft 467 kts 159°
2026-04-28 19:27 46.35035 8.50028 37084 ft 466 kts 160°
2026-04-28 19:28 46.31999 8.51535 37085 ft 457 kts 175°
2026-04-28 19:28 46.28882 8.51797 37071 ft 444 kts 190°
2026-04-28 19:28 46.22777 8.50577 36893 ft 445 kts 193°
2026-04-28 19:29 46.19720 8.49902 36241 ft 445 kts 193°
2026-04-28 19:29 46.17691 8.49457 35696 ft 447 kts 193°
2026-04-28 19:29 46.13564 8.48577 34677 ft 449 kts 193°
2026-04-28 19:29 46.10459 8.47973 33925 ft 453 kts 189°
2026-04-28 19:30 46.07325 8.48219 33206 ft 462 kts 172°
2026-04-28 19:30 46.04225 8.49739 33067 ft 468 kts 161°
2026-04-28 19:30 45.98155 8.52984 33063 ft 468 kts 165°
2026-04-28 19:31 45.92579 8.55800 33057 ft 468 kts 165°
2026-04-28 19:31 45.86432 8.58882 33039 ft 468 kts 165°
2026-04-28 19:32 45.80290 8.61953 33029 ft 467 kts 165°
2026-04-28 19:32 45.74149 8.65016 33027 ft 467 kts 165°
2026-04-28 19:33 45.68011 8.68072 33016 ft 467 kts 165°
2026-04-28 19:33 45.61876 8.71119 33020 ft 467 kts 165°
2026-04-28 19:34 45.55749 8.74154 33020 ft 466 kts 165°
2026-04-28 19:34 45.49611 8.77189 33021 ft 466 kts 165°
2026-04-28 19:35 45.44510 8.79704 33016 ft 466 kts 165°
2026-04-28 19:35 45.38383 8.82720 33041 ft 466 kts 165°
2026-04-28 19:36 45.32258 8.85728 33039 ft 465 kts 165°
2026-04-28 19:36 45.26140 8.88726 33037 ft 465 kts 165°
2026-04-28 19:37 45.21056 8.91211 33042 ft 465 kts 165°
2026-04-28 19:37 45.13903 8.94701 33045 ft 465 kts 165°
2026-04-28 19:38 45.07783 8.97678 33046 ft 465 kts 165°
2026-04-28 19:38 45.01668 9.00648 33040 ft 465 kts 165°
2026-04-28 19:39 44.95554 9.03609 33038 ft 465 kts 165°
2026-04-28 19:39 44.89432 9.06568 33038 ft 465 kts 165°
2026-04-28 19:40 44.83312 9.09520 33030 ft 465 kts 165°
2026-04-28 19:40 44.77187 9.12467 33037 ft 465 kts 165°
2026-04-28 19:41 44.71068 9.15405 33031 ft 465 kts 165°
2026-04-28 19:41 44.64945 9.18337 33035 ft 465 kts 165°
2026-04-28 19:42 44.58867 9.21243 33025 ft 464 kts 165°
2026-04-28 19:42 44.52748 9.24160 33048 ft 465 kts 165°
2026-04-28 19:43 44.46638 9.27068 33024 ft 463 kts 165°
2026-04-28 19:43 44.40531 9.29966 33051 ft 464 kts 165°
2026-04-28 19:44 44.34422 9.32861 33036 ft 463 kts 165°
2026-04-28 19:44 44.28303 9.35753 33037 ft 467 kts 165°
2026-04-28 19:45 44.22092 9.38681 33041 ft 474 kts 165°
2026-04-28 19:45 44.15842 9.41623 33040 ft 474 kts 165°
2026-04-28 19:46 44.09585 9.44561 33044 ft 474 kts 165°
2026-04-28 19:46 44.03331 9.47491 33049 ft 475 kts 164°
2026-04-28 19:47 43.97070 9.50417 33052 ft 475 kts 164°
2026-04-28 19:47 43.90804 9.53340 33053 ft 475 kts 164°
2026-04-28 19:48 43.84545 9.56253 33048 ft 475 kts 164°
2026-04-28 19:48 43.78270 9.59153 33048 ft 475 kts 166°
2026-04-28 19:49 43.71842 9.61065 33045 ft 473 kts 171°
2026-04-28 19:49 43.65435 9.62847 33052 ft 473 kts 171°
2026-04-28 19:50 43.55754 9.65522 33050 ft 473 kts 171°
2026-04-28 19:51 43.49289 9.67302 33051 ft 474 kts 171°
2026-04-28 19:51 43.42818 9.69080 33045 ft 474 kts 171°
2026-04-28 19:52 43.36357 9.70852 33044 ft 474 kts 171°
2026-04-28 19:52 43.29894 9.72620 33043 ft 473 kts 171°
2026-04-28 19:53 43.23429 9.74385 33049 ft 474 kts 171°
2026-04-28 19:53 43.16967 9.76146 33052 ft 473 kts 171°
2026-04-28 19:54 43.10577 9.77883 33049 ft 464 kts 171°
2026-04-28 19:54 43.04253 9.79599 33044 ft 463 kts 171°
2026-04-28 19:55 42.97928 9.81311 33043 ft 463 kts 171°
2026-04-28 19:55 42.91614 9.83017 33041 ft 463 kts 171°
2026-04-28 19:56 42.85296 9.84720 33045 ft 463 kts 171°
2026-04-28 19:56 42.78981 9.86394 33046 ft 462 kts 174°
2026-04-28 19:56 42.75835 9.86492 33051 ft 456 kts 186°
2026-04-28 19:57 42.72611 9.86301 33038 ft 458 kts 184°
2026-04-28 19:57 42.66286 9.85975 33042 ft 458 kts 184°
2026-04-28 19:58 42.59917 9.85608 33038 ft 458 kts 185°
2026-04-28 19:58 42.53547 9.85238 33038 ft 458 kts 185°
2026-04-28 19:59 42.47183 9.84869 33037 ft 458 kts 184°
2026-04-28 19:59 42.40825 9.84501 33038 ft 458 kts 184°
2026-04-28 20:00 42.34463 9.84133 33047 ft 457 kts 184°
2026-04-28 20:00 42.28105 9.83767 33051 ft 457 kts 184°
2026-04-28 20:01 42.21747 9.83402 33051 ft 457 kts 184°
2026-04-28 20:01 42.15394 9.83037 33053 ft 457 kts 184°
2026-04-28 20:02 42.09036 9.82672 33053 ft 457 kts 184°
2026-04-28 20:02 42.02682 9.82309 33054 ft 457 kts 184°
2026-04-28 20:03 41.96329 9.81946 33056 ft 457 kts 184°
2026-04-28 20:03 41.89974 9.81584 33054 ft 457 kts 184°
2026-04-28 20:04 41.83620 9.81223 33047 ft 457 kts 184°
2026-04-28 20:04 41.77266 9.80863 33054 ft 454 kts 184°
2026-04-28 20:04 41.74178 9.80688 33059 ft 436 kts 184°
2026-04-28 20:05 41.71197 9.80519 33058 ft 421 kts 184°
2026-04-28 20:05 41.65393 9.80191 33048 ft 416 kts 184°
2026-04-28 20:06 41.59607 9.79865 33049 ft 416 kts 184°
2026-04-28 20:06 41.53823 9.79539 33050 ft 416 kts 184°
2026-04-28 20:07 41.48045 9.79214 33043 ft 416 kts 184°
2026-04-28 20:07 41.42266 9.78890 33043 ft 415 kts 184°
2026-04-28 20:08 41.36489 9.78566 33045 ft 415 kts 184°
2026-04-28 20:08 41.30718 9.78243 33044 ft 415 kts 184°
2026-04-28 20:09 41.24993 9.77924 33041 ft 414 kts 184°
2026-04-28 20:09 41.19247 9.77601 33039 ft 413 kts 185°
2026-04-28 20:09 41.16423 9.77004 33024 ft 409 kts 200°
2026-04-28 20:10 41.13796 9.75606 33037 ft 408 kts 202°
2026-04-28 20:10 41.08446 9.73036 33032 ft 409 kts 201°
2026-04-28 20:11 41.03081 9.70516 33031 ft 409 kts 201°
2026-04-28 20:11 40.97718 9.68006 33023 ft 408 kts 201°
2026-04-28 20:11 40.95059 9.66764 32711 ft 403 kts 201°
2026-04-28 20:12 40.92395 9.65521 32014 ft 409 kts 201°
2026-04-28 20:12 40.89719 9.64273 31434 ft 407 kts 201°
2026-04-28 20:12 40.87053 9.63031 30927 ft 405 kts 201°
2026-04-28 20:12 40.85296 9.62212 30601 ft 403 kts 201°
2026-04-28 20:13 40.81768 9.60570 29903 ft 400 kts 201°
2026-04-28 20:13 40.79149 9.59353 29325 ft 398 kts 201°
2026-04-28 20:13 40.76546 9.58144 28810 ft 395 kts 200°
2026-04-28 20:13 40.73959 9.56943 28316 ft 393 kts 200°
2026-04-28 20:14 40.71388 9.55751 27822 ft 391 kts 200°
2026-04-28 20:14 40.68826 9.54564 27338 ft 389 kts 200°
2026-04-28 20:14 40.66275 9.53383 26856 ft 388 kts 200°
2026-04-28 20:14 40.63736 9.52209 26368 ft 386 kts 200°
2026-04-28 20:15 40.61204 9.51038 25884 ft 385 kts 200°
2026-04-28 20:15 40.58682 9.49874 25414 ft 384 kts 200°
2026-04-28 20:15 40.56165 9.48713 24933 ft 383 kts 200°
2026-04-28 20:15 40.53675 9.47564 24470 ft 374 kts 200°
2026-04-28 20:16 40.51246 9.46445 24010 ft 365 kts 200°
2026-04-28 20:16 40.48879 9.45355 23563 ft 359 kts 200°
2026-04-28 20:16 40.46525 9.44271 23045 ft 357 kts 200°
2026-04-28 20:16 40.44184 9.43194 22588 ft 356 kts 200°
2026-04-28 20:17 40.41854 9.42124 22157 ft 355 kts 200°
2026-04-28 20:17 40.39526 9.41055 21732 ft 353 kts 200°
2026-04-28 20:17 40.37211 9.39993 21313 ft 352 kts 200°
2026-04-28 20:17 40.34898 9.38934 20893 ft 352 kts 201°
2026-04-28 20:18 40.32588 9.37876 20481 ft 351 kts 200°
2026-04-28 20:18 40.31063 9.37178 20205 ft 350 kts 201°
2026-04-28 20:18 40.28023 9.35786 20031 ft 339 kts 201°
2026-04-28 20:18 40.25817 9.34778 20059 ft 331 kts 201°
2026-04-28 20:19 40.23687 9.33804 20057 ft 317 kts 201°
2026-04-28 20:19 40.21671 9.32883 20038 ft 305 kts 200°
2026-04-28 20:19 40.19711 9.31989 19957 ft 293 kts 201°
2026-04-28 20:19 40.17788 9.31112 19624 ft 292 kts 201°
2026-04-28 20:20 40.15875 9.30240 19306 ft 291 kts 201°
2026-04-28 20:20 40.13965 9.29370 18959 ft 290 kts 201°
2026-04-28 20:20 40.12066 9.28506 18652 ft 289 kts 201°
2026-04-28 20:20 40.10172 9.27645 18315 ft 288 kts 201°
2026-04-28 20:21 40.08284 9.26787 17972 ft 286 kts 201°
2026-04-28 20:21 40.06409 9.25935 17642 ft 284 kts 201°
2026-04-28 20:21 40.04548 9.25091 17314 ft 283 kts 201°
2026-04-28 20:21 40.02693 9.24250 16960 ft 282 kts 201°
2026-04-28 20:22 40.00787 9.23386 16010 ft 297 kts 201°
2026-04-28 20:22 39.98816 9.22493 15279 ft 303 kts 201°
2026-04-28 20:22 39.96841 9.21599 14823 ft 299 kts 201°
2026-04-28 20:22 39.95546 9.21013 14517 ft 296 kts 201°
2026-04-28 20:23 39.92957 9.19841 13903 ft 292 kts 201°
2026-04-28 20:23 39.91699 9.19273 13649 ft 286 kts 201°
2026-04-28 20:23 39.89841 9.18434 13271 ft 279 kts 201°
2026-04-28 20:23 39.88029 9.17616 12890 ft 272 kts 201°
2026-04-28 20:24 39.86257 9.16815 12515 ft 267 kts 200°
2026-04-28 20:24 39.84513 9.16029 12098 ft 265 kts 200°
2026-04-28 20:24 39.82773 9.15245 11664 ft 264 kts 200°
2026-04-28 20:24 39.81048 9.14467 11239 ft 261 kts 200°
2026-04-28 20:25 39.79338 9.13697 10818 ft 259 kts 200°
2026-04-28 20:25 39.77645 9.12934 10404 ft 256 kts 200°
2026-04-28 20:25 39.75980 9.12185 10111 ft 248 kts 200°
2026-04-28 20:25 39.74399 9.11474 10102 ft 233 kts 200°
2026-04-28 20:26 39.72900 9.10800 10096 ft 225 kts 200°
2026-04-28 20:26 39.71430 9.10140 10068 ft 223 kts 200°
2026-04-28 20:26 39.69961 9.09480 10063 ft 224 kts 200°
2026-04-28 20:26 39.68490 9.08820 10048 ft 224 kts 200°
2026-04-28 20:27 39.67020 9.08160 10046 ft 224 kts 200°
2026-04-28 20:27 39.65547 9.07500 10046 ft 224 kts 200°
2026-04-28 20:27 39.64013 9.07118 9780 ft 228 kts 183°
2026-04-28 20:27 39.62405 9.07134 9301 ft 232 kts 181°
2026-04-28 20:28 39.60812 9.07161 8850 ft 226 kts 181°
2026-04-28 20:28 39.59259 9.07193 8432 ft 221 kts 181°
2026-04-28 20:28 39.57730 9.07227 8032 ft 220 kts 181°
2026-04-28 20:28 39.56219 9.07262 7633 ft 220 kts 180°
2026-04-28 20:29 39.54664 9.07299 7222 ft 221 kts 180°
2026-04-28 20:29 39.53187 9.07004 6801 ft 220 kts 204°
2026-04-28 20:29 39.51847 9.05932 6094 ft 228 kts 214°
2026-04-28 20:29 39.50537 9.04745 5318 ft 237 kts 214°
2026-04-28 20:30 39.49225 9.03540 5085 ft 221 kts 214°
2026-04-28 20:30 39.48028 9.02431 4976 ft 207 kts 214°
2026-04-28 20:30 39.46853 9.01337 4885 ft 208 kts 214°
2026-04-28 20:30 39.45680 9.00239 4773 ft 208 kts 214°
2026-04-28 20:31 39.44508 8.99141 4585 ft 207 kts 214°
2026-04-28 20:31 39.43342 8.98047 4352 ft 207 kts 213°
2026-04-28 20:31 39.42164 8.96940 4067 ft 203 kts 213°
2026-04-28 20:31 39.41061 8.95904 3800 ft 194 kts 212°
2026-04-28 20:32 39.39990 8.94899 3539 ft 187 kts 211°
2026-04-28 20:32 39.38946 8.93919 3285 ft 184 kts 211°
2026-04-28 20:32 39.37889 8.93018 3030 ft 179 kts 196°
2026-04-28 20:32 39.36698 8.92882 2754 ft 171 kts 166°
2026-04-28 20:33 39.35608 8.93448 2506 ft 169 kts 145°
2026-04-28 20:33 39.34691 8.94395 2271 ft 169 kts 136°
2026-04-28 20:33 39.33818 8.95428 2035 ft 171 kts 136°
2026-04-28 20:33 39.32935 8.96455 1822 ft 170 kts 136°
2026-04-28 20:34 39.32055 8.97471 1592 ft 168 kts 137°
2026-04-28 20:34 39.31196 8.98461 1344 ft 164 kts 137°
2026-04-28 20:34 39.30372 8.99410 1147 ft 151 kts 138°
2026-04-28 20:34 39.29605 9.00293 927 ft 147 kts 139°
2026-04-28 20:35 39.28844 9.01169 761 ft 147 kts 140°
2026-04-28 20:35 39.28075 9.02058 584 ft 150 kts 140°
2026-04-28 20:35 39.27307 9.02952 370 ft 147 kts 140°
2026-04-28 20:35 39.26545 9.03829 176 ft 147 kts 141°
2026-04-28 20:36 39.25782 9.04697 25 ft 139 kts 138°
2026-04-28 20:36 39.25205 9.05363 17 ft 76 kts 138°
2026-04-28 20:36 39.24945 9.05666 19 ft 40 kts 138°
2026-04-28 20:36 39.24749 9.05892 18 ft 26 kts 138°
2026-04-28 20:37 39.24679 9.06023 17 ft 16 kts 89°
2026-04-28 20:37 39.24713 9.06127 17 ft 0 kts 60°
2026-04-28 20:37 39.24717 9.06135 17 ft 5 kts 52°
2026-04-28 20:38 39.24749 9.06153 20 ft 9 kts 355°
2026-04-28 20:38 39.24778 9.06133 17 ft 8 kts 319°
2026-04-28 20:38 39.24829 9.06073 17 ft 12 kts 317°
2026-04-28 20:38 39.24922 9.05969 18 ft 23 kts 316°
2026-04-28 20:39 39.25049 9.05817 18 ft 20 kts 318°
2026-04-28 20:39 39.25111 9.05772 20 ft 9 kts 11°
2026-04-28 20:39 39.25151 9.05834 17 ft 7 kts 59°
2026-04-28 20:39 39.25173 9.05853 17 ft 3 kts
2026-04-28 20:40 39.25200 9.05829 19 ft 4 kts 318°
2026-04-28 20:40 39.25219 9.05824 17 ft 4 kts 24°
2026-04-28 20:40 39.25231 9.05840 17 ft 4 kts 51°
2026-04-28 20:40 39.25245 9.05863 17 ft 1 kts 51°
2026-04-28 20:41 39.25249 9.05869 17 ft 0 kts 51°